Location: La Pernelle
(49.6188°N, 1.2999°W)
Time: 17:49:19
(UTC+00:00)

SL-16 R/B - Pass Details

Date: 29 October 2021
Orbit: 842 x 846 km, 71.0° (Epoch: 28 November)

Event Time Altitude Azimuth Distance (km) Brightness Sun altitude
Rises 18:24:15 0° 231° (SW) 3,394 6.3 -16.1°
Reaches altitude 10° 18:26:50 10° 239° (WSW) 2,463 5.6 -16.5°
Maximum altitude 18:32:09 41° 309° (NW) 1,215 3.4 -17.4°
Drops below altitude 10° 18:37:31 10° 19° (NNE) 2,479 4.4 -18.2°
Enters shadow 18:39:41 - 26° (NNE) 3,255 5.0 -18.6°
